Location: Medlow Airstrip Trail, Medlow Bath NSW 2780, Australia
(33.6682°S, 150.3233°E)
Time: 22:57:41
(UTC+10:00)

Envisat - Visible Passes

Search period start: 03 August 2020 00:00
Search period end: 13 August 2020 00:00
Orbit: 764 x 766 km, 98.1° (Epoch: 03 August)

Date Brightness Start Highest point End Pass type
(mag) Time Alt. Az. Time Alt. Az. Time Alt. Az.
03 Aug 3.9 05:00:21 10° NNE 05:05:13 48° ESE 05:10:10 10° S visible
03 Aug 4.7 18:52:28 10° S 18:57:02 33° WSW 19:01:33 10° NW visible
04 Aug 5.3 04:24:56 10° ENE 04:28:43 21° ESE 04:32:31 10° SSE visible
04 Aug 3.5 06:02:44 10° NNW 06:07:25 37° W 06:12:11 10° SSW visible
04 Aug 3.2 18:15:16 10° S 18:20:25 79° WSW 18:25:30 10° NNW visible
05 Aug 3.0 05:25:30 10° NNE 05:30:35 89° E 05:35:46 10° SSW visible
05 Aug 3.4 17:38:43 10° SSE 17:43:36 43° E 17:48:25 10° N visible
05 Aug 5.6 19:18:44 10° SSW 19:22:14 19° WSW 19:25:43 10° WNW visible
06 Aug 4.4 04:49:16 10° NE 04:53:56 37° ESE 04:58:39 10° S visible
06 Aug 4.2 18:40:55 10° S 18:45:46 42° WSW 18:50:32 10° NW visible
07 Aug 5.7 04:14:20 10° ENE 04:17:30 17° ESE 04:20:40 10° SSE visible
07 Aug 3.2 05:51:08 10° N 05:56:03 49° W 06:01:02 10° SSW visible
07 Aug 3.0 18:03:55 10° SSE 18:09:05 81° ENE 18:14:10 10° N visible
07 Aug 6.2 19:46:58 10° WSW 19:47:20 10° WSW 19:47:41 10° WSW visible
08 Aug 3.3 05:14:13 10° NNE 05:19:16 70° ESE 05:24:24 10° S visible
08 Aug 5.3 19:06:58 10° SSW 19:11:00 24° WSW 19:15:01 10° WNW visible
09 Aug 4.9 04:38:19 10° NE 04:42:40 29° ESE 04:47:05 10° S visible
09 Aug 4.0 06:17:21 10° NNW 06:21:36 26° W 06:25:53 10° SW visible
09 Aug 3.8 18:29:26 10° S 18:34:28 55° WSW 18:39:25 10° NNW visible
10 Aug 5.9 04:04:03 10° E 04:06:17 13° ESE 04:08:32 10° SE visible
10 Aug 3.0 05:39:38 10° N 05:44:41 64° W 05:49:48 10° SSW visible
10 Aug 3.1 17:52:38 10° SSE 17:57:44 62° E 18:02:45 10° N visible
10 Aug 5.9 19:33:46 10° SW 19:36:08 13° WSW 19:38:31 10° W visible
11 Aug 3.8 05:03:01 10° NNE 05:07:58 53° ESE 05:12:58 10° S visible
11 Aug 4.9 18:55:18 10° S 18:59:45 30° WSW 19:04:09 10° NW visible
12 Aug 5.3 04:27:28 10° ENE 04:31:25 23° ESE 04:35:25 10° SSE visible
12 Aug 3.7 06:05:36 10° NNW 06:10:12 34° W 06:14:51 10° SSW visible
12 Aug 3.3 18:18:01 10° S 18:23:09 72° WSW 18:28:13 10° NNW visible
